Tracking 29091 objects as of 18-Jul-2024
HD Live streaming from Space Station
objects crossing your sky now

STARLINK-30114

Track STARLINK-30114 now!
10-day predictions
STARLINK-30114 is classified as:


NORAD ID: 56826
Int'l Code: 2023-079D
Perigee: 565.5 km
Apogee: 566.9 km
Inclination: 43.0 °
Period: 95.8 minutes
Semi major axis: 6937 km
RCS: Unknown
Launch date: June 4, 2023
Source: United States (US)
Launch site: AIR FORCE EASTERN TEST RANGE (AFETR)
Your satellite tracking list
Your tracking list is empty




NASA's NSSDC Master Catalog

Two Line Element Set (TLE):
1 56826U 23079D   24199.21119814  .00001488  00000-0  12521-3 0  9995
2 56826  43.0017 130.2934 0000973 266.3451  93.7280 15.02538958 62870
Source of the keplerian elements: AFSPC